Date,TemperatureHighF,TemperatureAvgF,TemperatureLowF,DewpointHighF,DewpointAvgF,DewpointLowF,HumidityHigh,HumidityAvg,HumidityLow,PressureMaxIn,PressureMinIn,WindSpeedMaxMPH,WindSpeedAvgMPH,GustSpeedMaxMPH,PrecipitationSumIn
2013-1-1,39,37,30,16,11,-1,40,35,25,0.00,0.00,7,1,11,0.00
2013-1-2,32,28,23,-1,-6,-10,33,23,18,0.00,0.00,11,2,11,0.00
2013-1-3,34,27,18,5,-3,-8,39,28,20,0.00,0.00,11,1,11,0.00
2013-1-4,39,34,30,5,1,-4,31,24,19,0.00,0.00,14,4,14,0.00
2013-1-5,39,32,25,8,1,-6,38,27,19,0.00,0.00,9,2,9,0.00
2013-1-6,46,36,24,22,9,0,56,35,17,0.00,0.00,9,1,14,0.00
2013-1-7,44,37,24,12,7,-1,43,28,18,0.00,0.00,12,2,12,0.00
2013-1-8,46,31,21,21,8,3,54,39,22,0.00,0.00,6,0,6,0.00
2013-1-9,44,32,23,27,16,7,62,53,40,0.00,0.00,5,0,5,0.00
2013-1-10,48,38,28,25,11,-1,69,36,17,0.00,0.00,8,1,8,0.00
2013-1-11,45,39,30,34,22,11,73,52,39,0.00,0.00,7,0,7,0.00
2013-1-12,51,44,40,47,38,34,90,79,65,0.00,0.00,4,0,4,0.00
2013-1-13,47,45,41,46,43,37,95,93,86,0.00,0.00,5,0,6,0.00
2013-1-14,53,48,40,51,37,16,95,69,27,0.00,0.00,8,1,11,0.00
2013-1-15,40,38,34,30,20,12,69,51,35,0.00,0.00,6,1,6,0.00
2013-1-16,36,35,33,33,29,19,89,79,55,0.00,0.00,4,0,6,0.00
2013-1-17,40,38,35,34,20,12,89,52,31,0.00,0.00,8,1,10,0.00
2013-1-18,36,30,24,14,-4,-12,41,23,18,0.00,0.00,11,3,15,0.00
2013-1-19,55,36,22,9,1,-13,34,24,14,0.00,0.00,10,2,11,0.00
2013-1-20,54,38,28,14,3,-10,45,25,13,0.00,0.00,17,3,22,0.00
2013-1-21,34,28,23,5,-8,-13,35,21,17,0.00,0.00,9,2,9,0.00
2013-1-22,24,17,12,-1,-16,-20,35,21,20,0.00,0.00,15,5,20,0.00
2013-1-23,20,14,10,-14,-18,-22,22,21,20,0.00,0.00,13,3,13,0.00
2013-1-24,26,19,14,-10,-15,-19,24,21,19,0.00,0.00,13,2,17,0.00
2013-1-25,22,16,9,0,-12,-19,44,29,20,0.00,0.00,6,1,9,0.00
2013-1-26,27,19,13,3,-2,-8,52,41,21,0.00,0.00,8,1,8,0.00
2013-1-28,34,34,34,27,26,25,73,71,69,0.00,0.00,0,0,0,0.00
2013-1-29,59,44,34,41,34,27,84,68,45,0.00,0.00,5,0,6,0.00
2013-1-30,65,50,38,56,43,31,93,78,50,0.00,0.00,11,1,13,0.00
2013-1-31,58,40,28,56,9,-10,94,33,16,0.00,0.00,23,6,25,0.00
2013-2-1,30,26,19,-7,-11,-15,21,19,18,0.00,0.00,17,4,19,0.00
2013-2-2,25,20,14,7,-8,-18,48,28,19,0.00,0.00,14,2,14,0.00
2013-2-3,33,26,18,16,8,-3,58,46,29,0.00,0.00,11,1,11,0.00
2013-2-4,32,26,20,1,-7,-11,32,23,18,0.00,0.00,10,3,11,0.00
2013-2-5,34,31,28,19,10,1,57,42,31,0.00,0.00,4,0,4,0.00
2013-2-6,39,32,26,23,8,-6,69,41,18,0.00,0.00,10,1,11,0.00
2013-2-7,36,29,21,5,-2,-6,42,27,17,0.00,0.00,6,1,8,0.00
2013-2-8,38,35,31,28,19,0,78,55,25,0.00,0.00,11,2,11,0.00
2013-2-9,35,28,23,10,-2,-10,41,26,20,0.00,0.00,13,1,13,0.00
2013-2-10,43,28,15,3,-4,-9,40,26,16,0.00,0.00,6,1,6,0.00
2013-2-14,46,38,30,23,10,1,60,32,17,29.77,29.74,8,1,8,0.00
2013-2-15,56,39,27,23,12,2,53,36,15,29.83,29.71,10,2,14,0.00
2013-2-16,37,33,29,27,14,-7,75,49,20,29.80,29.62,9,1,9,0.00
2013-2-17,31,26,21,-6,-10,-14,22,19,18,29.91,29.59,17,5,20,0.00
2013-2-18,39,27,18,-4,-10,-16,20,19,16,30.12,29.91,14,3,14,0.00
2013-2-19,41,34,26,31,11,-11,69,40,18,29.94,29.50,13,2,13,0.00
2013-2-20,35,28,23,4,-8,-13,27,20,18,29.88,29.59,18,6,24,0.00
2013-2-21,37,29,23,-4,-9,-13,21,18,17,30.12,29.88,13,4,14,0.00
2013-2-22,35,30,24,13,0,-9,41,28,20,30.18,30.03,8,1,8,0.00
2013-2-23,46,38,33,37,28,13,81,65,41,30.03,29.62,4,0,5,0.00
2013-2-24,46,38,31,36,15,-5,87,46,17,29.88,29.62,15,3,15,0.00
2013-2-25,49,37,28,5,0,-6,31,21,14,30.00,29.88,9,2,9,0.00
2013-2-26,44,35,25,30,13,1,76,41,23,30.03,29.53,10,2,14,0.00
2013-2-27,52,44,37,40,27,13,91,58,27,29.53,29.32,12,3,16,0.00
2013-2-28,47,40,33,25,12,2,57,34,17,29.50,29.41,13,2,13,0.00
2013-3-1,44,39,34,16,7,-1,43,27,18,29.65,29.50,10,2,10,0.00
2013-3-2,39,35,32,6,-1,-5,32,21,16,29.68,29.56,11,3,11,0.00
2013-3-3,36,32,28,7,-2,-5,34,23,17,29.65,29.56,12,4,12,0.00
2013-3-4,39,32,28,0,-5,-7,23,20,16,29.83,29.65,13,4,13,0.00
2013-3-5,48,36,29,8,2,-4,31,23,15,29.85,29.71,10,2,10,0.00
2013-3-6,40,38,34,26,17,7,60,44,29,29.80,29.56,13,4,14,0.00
2013-3-7,50,40,35,9,3,-5,31,21,14,29.91,29.80,12,4,15,0.00
2013-3-8,49,39,33,5,-2,-6,23,17,14,30.06,29.88,17,5,19,0.00
2013-3-9,64,45,32,13,1,-7,20,16,13,30.12,30.03,8,1,8,0.00
2013-3-10,62,44,27,12,4,-6,37,20,13,30.12,30.03,10,2,10,0.00
2013-3-11,57,48,37,35,25,2,60,42,19,30.06,29.77,10,2,10,0.00
2013-3-12,56,51,42,52,34,10,86,56,26,29.77,29.53,13,4,13,0.00
2013-3-13,49,39,30,16,5,-6,44,25,14,29.80,29.68,13,3,13,0.00
2013-3-14,43,36,29,0,-4,-7,23,18,15,29.85,29.77,16,5,17,0.00
2013-3-15,54,39,24,8,-2,-12,21,17,14,29.85,29.56,15,3,17,0.00
2013-3-16,46,37,32,22,11,-2,63,39,17,29.74,29.56,8,1,8,0.00
2013-3-17,40,34,30,23,11,-4,64,41,18,30.09,29.74,6,1,8,0.00
2013-3-18,36,32,28,23,6,-6,66,34,17,30.12,29.71,9,1,10,0.00
2013-3-19,54,40,34,33,16,-5,78,46,13,29.71,29.50,13,3,15,0.00
2013-3-20,48,39,29,1,-3,-9,20,16,14,29.77,29.56,15,3,16,0.00
2013-3-21,38,33,27,-4,-7,-11,18,18,16,29.65,29.53,12,3,13,0.00
2013-3-22,32,27,25,7,-5,-11,40,24,18,29.68,29.62,8,2,8,0.00
2013-3-24,47,42,28,7,0,-4,33,17,14,29.80,29.47,9,1,9,0.00
2013-3-25,38,36,32,26,16,-1,70,48,19,29.50,29.32,8,1,9,0.00
2013-3-26,53,41,33,26,16,0,72,43,13,29.77,29.47,10,2,10,0.00
2013-3-27,52,42,35,12,6,-1,37,23,14,29.85,29.74,15,4,19,0.00
2013-3-28,51,42,31,14,4,-2,40,22,14,30.00,29.83,12,2,12,0.00
2013-3-29,55,46,35,8,3,-5,23,17,13,30.00,29.91,10,2,10,0.00
2013-3-30,60,44,27,15,5,-5,40,22,13,30.00,29.88,9,1,12,0.00
2013-3-31,54,44,32,39,15,-6,71,35,15,29.91,29.53,13,1,13,0.00
2013-4-1,59,46,37,42,17,-5,81,39,14,29.77,29.50,18,3,21,0.00
2013-4-2,47,37,30,1,-4,-9,18,17,14,29.94,29.77,13,3,15,0.00
2013-4-3,48,37,23,1,-4,-13,19,17,14,30.15,29.94,18,3,18,0.00
2013-4-4,55,39,24,8,-3,-13,19,16,13,30.21,29.88,8,2,11,0.00
2013-4-5,65,50,34,15,7,-2,35,19,13,29.88,29.59,13,2,15,0.00
2013-4-10,90,73,55,40,24,15,44,20,7,29.74,29.53,16,2,16,0.00
2013-4-11,62,62,60,46,44,40,58,53,44,29.71,29.59,2,0,3,0.00
2013-4-15,55,54,53,23,21,20,30,27,25,30.09,30.06,6,2,6,0.00
2013-4-16,73,60,51,37,29,20,42,31,14,30.09,29.91,11,2,12,0.00
2013-4-17,73,62,54,44,27,8,61,32,11,30.03,29.88,6,1,8,0.00
2013-4-18,64,59,55,49,33,8,65,41,14,30.06,29.83,8,1,9,0.00
2013-4-19,75,64,51,55,46,34,77,55,27,29.83,29.38,15,3,16,0.00
2013-4-20,59,51,44,36,16,1,59,28,13,30.03,29.56,16,4,16,0.00
2013-4-23,61,50,42,20,16,9,39,27,14,29.94,29.91,8,1,8,0.00
2013-4-24,75,55,37,46,26,18,58,37,13,29.91,29.59,14,2,14,0.00
2013-4-25,65,51,42,23,8,0,27,17,13,30.09,29.77,13,3,15,0.00
2013-4-26,67,52,37,22,10,-1,40,20,12,30.24,30.09,8,1,10,0.00
2013-4-27,73,54,35,19,11,0,39,19,11,30.24,30.06,8,1,8,0.00
2013-4-28,72,50,40,26,15,4,39,26,11,30.09,30.06,8,1,8,0.00
2013-5-16,83,68,57,45,25,12,62,26,9,29.68,29.53,8,1,8,0.00
2013-5-17,79,67,51,24,15,10,27,14,10,29.94,29.68,9,1,9,0.00
2013-5-18,70,63,58,44,24,10,56,25,12,30.03,29.94,8,1,9,0.00
2013-5-19,67,62,59,55,50,43,74,64,55,30.03,29.91,5,0,5,0.00
2013-5-20,84,71,62,65,51,32,87,55,16,29.94,29.74,6,0,7,0.00
2013-5-21,89,75,62,62,47,34,76,42,15,29.77,29.62,9,1,10,0.00
2013-5-22,94,77,65,62,42,16,72,37,6,29.71,29.56,11,2,13,0.00
2013-5-23,79,71,64,58,50,40,63,48,27,29.68,29.53,9,1,11,0.00
2013-5-24,64,58,50,56,41,18,77,56,23,29.77,29.50,12,2,12,0.00
2013-5-27,62,58,56,12,10,8,17,15,14,29.97,29.94,0,0,0,0.00
2013-5-28,67,61,56,54,41,12,70,50,17,30.00,29.88,6,0,6,0.00
2013-5-29,92,75,60,65,40,17,85,43,7,29.88,29.83,11,1,11,0.00
2013-5-30,95,79,63,57,35,16,63,29,6,29.94,29.85,8,1,8,0.00
2013-5-31,96,78,64,58,41,16,63,35,6,29.91,29.83,8,0,8,0.00
2013-6-2,85,79,74,45,37,24,35,24,11,29.65,29.59,10,2,10,0.00
2013-6-3,84,73,66,58,38,16,68,34,10,29.71,29.59,8,1,8,0.00
2013-6-4,77,66,54,29,15,8,26,14,10,29.91,29.71,8,1,11,0.00
2013-6-5,83,67,50,34,19,12,43,19,9,30.00,29.85,9,1,9,0.00
2013-6-6,72,65,60,53,30,11,65,30,11,29.88,29.71,8,0,9,0.00
2013-6-7,67,64,62,63,58,51,91,82,64,29.71,29.41,8,1,8,0.00
2013-6-8,79,68,61,64,49,27,92,59,15,29.88,29.47,7,1,8,0.00
2013-6-9,85,71,56,52,34,17,70,34,8,29.97,29.85,6,1,8,0.00
2013-6-10,76,70,66,73,61,43,91,74,35,29.91,29.56,8,1,8,0.00
2013-6-11,82,73,63,67,48,32,93,50,17,29.59,29.50,11,2,14,0.00
2013-6-12,86,74,61,54,35,17,65,28,11,29.65,29.59,8,1,10,0.00
2013-6-13,87,72,62,62,45,25,72,41,11,29.62,29.21,10,2,13,0.00
2013-6-14,80,67,58,49,31,14,65,32,10,29.74,29.38,10,2,10,0.00
2013-6-15,84,70,55,47,27,14,59,25,9,29.85,29.74,8,1,8,0.00
2013-6-16,84,70,58,49,36,17,51,32,9,29.80,29.62,13,2,13,0.00
2013-6-17,87,73,64,59,48,25,72,45,11,29.74,29.65,8,1,10,0.00
2013-6-18,76,69,65,67,59,54,82,72,61,29.71,29.59,6,0,6,0.00
2013-6-19,80,70,61,61,36,15,85,40,10,29.94,29.68,6,1,8,0.00
2013-6-20,85,69,56,57,36,17,67,35,9,30.06,29.91,8,1,8,0.00
2013-6-21,87,72,57,50,28,15,61,26,8,30.09,30.00,11,1,11,0.00
2013-6-22,90,74,58,52,35,21,56,28,10,30.03,29.88,10,1,10,0.00
2013-6-23,88,77,64,56,44,28,61,34,13,29.97,29.83,9,0,9,0.00
2013-6-24,95,79,68,63,47,18,68,38,9,29.88,29.77,10,1,10,0.00
2013-6-25,92,79,67,64,45,23,71,38,9,29.80,29.65,9,1,12,0.00
2013-7-7,83,73,71,55,49,23,57,45,11,29.83,29.77,6,1,8,0.00
2013-7-8,88,76,69,62,50,28,69,45,13,29.88,29.80,11,1,11,0.00
2013-7-9,88,76,70,60,51,39,61,43,19,29.85,29.77,10,0,10,0.00
2013-7-10,90,79,70,66,52,39,67,44,17,29.80,29.62,8,1,10,0.00
2013-7-11,87,78,73,57,43,23,56,33,11,29.71,29.62,5,1,6,0.00
2013-7-18,99,90,82,48,33,25,30,14,8,29.80,29.77,4,0,5,0.00
2013-7-19,99,85,76,64,45,18,59,30,8,29.80,29.62,8,1,8,0.00
2013-7-20,93,82,73,55,40,24,48,26,9,29.65,29.56,11,2,11,0.00
2013-7-21,88,81,73,52,41,29,41,26,13,29.74,29.65,6,0,6,0.00
2013-7-22,90,78,72,61,52,39,61,42,18,29.74,29.56,6,1,8,0.00
2013-7-23,88,78,72,69,52,28,79,47,13,29.56,29.41,10,1,10,0.00
2013-7-24,82,74,65,56,38,15,62,32,9,29.74,29.44,8,2,9,0.00
2013-7-25,76,66,56,38,31,20,37,27,18,29.83,29.74,6,1,6,0.00
2013-7-26,86,73,62,47,30,14,50,25,8,29.85,29.80,8,1,8,0.00
2013-7-27,86,72,60,55,41,29,54,35,13,29.83,29.71,9,1,10,0.00
2013-7-28,86,75,68,63,50,28,71,46,13,29.74,29.68,8,1,9,0.00
2013-7-29,84,72,62,57,34,14,63,32,9,29.91,29.74,9,1,9,0.00
2013-7-30,83,70,58,44,27,14,49,24,9,30.00,29.91,8,1,8,0.00
2013-7-31,82,71,59,50,38,30,54,32,17,29.94,29.77,7,0,7,0.00
2013-8-1,80,72,68,64,55,43,71,55,35,29.80,29.59,6,0,6,0.00
2013-8-2,86,74,63,62,39,15,79,39,8,29.74,29.62,10,1,10,0.00
2013-8-3,80,71,66,53,46,35,53,41,22,29.74,29.65,8,1,9,0.00
2013-8-4,79,68,59,50,41,16,64,43,10,29.74,29.68,10,2,10,0.00
2013-8-11,77,72,70,49,46,40,47,39,26,29.83,29.80,5,0,6,0.00
2013-8-12,87,76,69,63,45,22,70,41,11,29.83,29.68,6,0,6,0.00
2013-8-13,84,72,66,65,52,40,79,51,24,29.68,29.50,8,1,8,0.00
2013-8-14,76,66,56,40,24,12,36,22,10,29.85,29.59,10,2,11,0.00
2013-8-15,79,64,50,41,26,12,56,29,10,29.97,29.85,6,0,6,0.00
2013-8-16,82,66,52,46,28,13,56,29,9,29.97,29.91,6,0,6,0.00
2013-8-17,84,69,55,51,31,15,59,30,8,30.06,29.97,6,0,6,0.00
2013-8-18,71,67,63,52,43,34,57,43,30,30.03,29.94,4,0,4,0.00
2013-8-19,78,68,60,54,48,44,67,50,31,29.94,29.83,6,0,6,0.00
2013-8-20,88,73,62,64,44,17,80,44,8,29.94,29.85,6,1,8,0.00
2013-8-21,91,74,59,61,43,24,66,39,9,29.97,29.83,6,0,6,0.00
2013-8-22,87,78,70,62,49,35,67,40,16,29.85,29.68,8,1,8,0.00
2013-8-23,81,71,62,57,45,28,62,42,17,29.88,29.71,4,0,5,0.00
2013-8-24,83,68,57,45,29,13,57,28,9,30.12,29.88,8,1,8,0.00
2013-8-25,85,68,53,52,29,15,60,29,8,30.18,30.03,8,1,8,0.00
2013-8-26,88,74,58,45,30,17,44,23,8,30.03,29.74,10,1,12,0.00
2013-8-27,90,79,69,53,40,24,51,28,10,29.74,29.65,8,1,8,0.00
2013-8-28,80,74,70,66,59,48,72,60,40,29.68,29.59,6,0,6,0.00
2013-8-29,85,77,70,59,52,47,60,42,30,29.80,29.77,4,0,4,0.00
2013-8-30,90,77,70,63,54,31,71,49,13,29.80,29.65,8,2,11,0.00
2013-8-31,90,77,69,65,56,42,72,51,20,29.68,29.56,8,1,8,0.00
2013-9-1,90,78,69,68,56,42,77,51,20,29.62,29.53,6,0,6,0.00
2013-9-2,92,78,70,69,55,30,79,50,12,29.59,29.50,13,1,17,0.00
2013-9-3,84,73,65,60,40,15,72,39,9,29.74,29.50,8,2,9,0.00
2013-9-4,84,69,57,46,30,14,56,27,9,29.85,29.74,8,1,9,0.00
2013-9-5,82,68,57,48,29,11,56,28,9,29.94,29.77,8,1,9,0.00
2013-9-6,74,62,50,28,19,12,36,21,11,30.06,29.94,6,1,7,0.00
2013-9-9,71,69,68,49,42,33,51,38,25,29.94,29.88,7,2,7,0.00
2013-9-10,93,80,68,62,47,25,66,38,9,29.94,29.83,9,2,10,0.00
2013-9-11,97,82,70,68,48,25,68,38,8,29.91,29.77,9,2,11,0.00
2013-9-12,88,75,69,64,55,39,66,51,21,29.77,29.53,8,0,8,0.00
2013-9-13,69,65,58,59,30,12,70,33,12,29.71,29.50,8,2,8,0.00
2013-9-14,67,57,47,32,23,11,43,28,12,29.97,29.71,10,2,10,0.00
2013-9-15,76,59,42,40,24,14,56,31,10,30.03,29.85,8,1,9,0.00
2013-9-16,60,59,58,45,38,32,57,46,34,29.88,29.83,4,0,4,0.00
2013-9-17,50,48,47,16,14,9,29,25,19,30.12,30.12,0,0,0,0.00
2013-9-18,73,55,41,39,19,7,54,28,11,30.12,29.97,6,1,8,0.00
2013-9-19,80,60,43,40,22,13,50,27,10,30.00,29.85,6,1,8,0.00
2013-9-20,82,65,50,51,30,15,60,32,9,29.91,29.74,8,1,8,0.00
2013-9-21,76,65,56,54,42,28,65,46,18,29.77,29.47,15,2,15,0.00
2013-9-22,71,61,53,51,34,9,76,43,12,29.74,29.50,11,1,11,0.00
2013-9-23,68,56,47,24,16,8,34,22,12,29.88,29.74,10,2,10,0.00
2013-9-24,75,55,40,32,20,8,51,28,11,29.91,29.74,8,1,8,0.00
2013-9-25,76,57,42,37,21,8,51,28,10,29.80,29.65,6,1,8,0.00
2013-9-26,51,50,49,26,24,21,40,36,31,29.74,29.74,0,0,0,0.00
2013-9-27,70,60,53,27,19,11,36,22,12,30.03,29.94,4,0,4,0.00
2013-9-28,76,61,51,44,28,11,52,32,10,30.12,30.00,6,1,6,0.00
2013-9-29,74,57,46,43,26,12,53,33,11,30.03,29.85,6,1,9,0.00
2013-9-30,53,50,48,35,29,27,53,45,37,29.88,29.85,0,0,0,0.00
2013-10-1,71,62,58,31,26,14,36,26,12,29.80,29.74,0,0,0,0.00
2013-10-2,87,68,52,49,30,14,59,30,8,29.85,29.74,11,1,11,0.00
2013-10-3,84,70,56,53,34,17,58,31,9,29.94,29.80,7,0,7,0.00
2013-10-4,88,71,60,56,40,17,62,39,8,29.88,29.77,8,1,9,0.00
2013-10-5,89,75,66,63,44,23,67,39,10,29.85,29.77,6,0,7,0.00
2013-10-6,85,73,66,59,47,28,67,43,13,29.83,29.71,9,1,11,0.00
2013-10-7,73,65,51,61,53,38,80,64,43,29.83,29.53,12,2,13,0.00
2013-10-8,70,55,45,47,28,8,73,42,12,30.09,29.83,8,1,8,0.00
2013-10-9,62,54,46,32,26,17,51,35,19,30.15,30.03,8,1,8,0.00
2013-10-10,58,56,51,51,40,28,80,57,35,30.03,29.80,12,2,12,0.00
2013-10-11,63,59,55,59,55,49,91,86,78,29.85,29.77,10,3,11,0.00
2013-10-12,73,64,59,58,36,14,85,43,11,30.00,29.83,8,2,10,0.00
2013-10-13,71,62,52,39,30,13,43,31,12,30.12,29.97,10,2,10,0.00
2013-10-14,70,57,48,42,30,16,61,38,15,30.15,30.00,6,0,6,0.00
2013-10-15,75,59,47,48,28,11,64,37,10,30.03,29.85,6,0,6,0.00
2013-10-16,68,61,53,46,39,28,59,46,36,29.88,29.71,5,0,5,0.00
2013-10-17,74,65,60,56,51,44,71,60,35,29.71,29.47,14,1,17,0.00
2013-10-18,66,56,44,48,21,6,62,28,13,29.80,29.56,13,2,14,0.00
2013-10-19,44,41,39,22,20,19,48,43,37,29.80,29.74,0,0,0,0.00
2013-10-20,62,53,40,29,12,2,54,21,14,29.88,29.77,10,2,12,0.00
2013-10-21,69,51,35,33,15,4,52,27,12,29.91,29.74,10,1,13,0.00
2013-10-22,61,49,39,35,18,-1,49,31,14,29.74,29.59,13,1,13,0.00
2013-10-23,55,45,37,24,13,4,42,29,15,29.62,29.47,8,1,8,0.00
2013-10-24,50,41,32,21,8,-4,50,27,14,29.88,29.62,13,2,17,0.00
2013-10-25,53,42,32,19,8,-3,42,25,16,30.06,29.88,13,2,13,0.00
2013-10-26,58,43,28,19,6,1,43,24,13,30.06,29.71,15,2,15,0.00
2013-10-27,58,46,34,16,4,-4,32,18,13,29.94,29.71,13,1,14,0.00
2013-10-28,62,44,30,22,7,-2,42,24,13,30.09,29.94,8,1,8,0.00
2013-10-29,63,46,35,24,12,2,45,27,13,30.18,30.09,9,1,9,0.00
2013-10-30,64,52,42,40,30,15,54,43,33,30.12,29.94,6,0,6,0.00
2013-10-31,65,58,48,52,45,32,71,61,44,30.00,29.56,13,2,13,0.00
2013-11-1,69,63,59,55,50,37,74,63,32,29.56,29.35,11,4,14,0.00
2013-11-2,66,57,44,34,14,6,37,18,13,29.65,29.47,10,2,10,0.00
2013-11-3,54,46,31,25,8,-7,38,22,13,30.27,29.65,11,3,12,0.00
2013-11-4,47,36,26,1,-4,-10,24,18,14,30.42,30.27,7,1,8,0.00
2013-11-5,59,46,33,24,12,-4,37,25,14,30.39,30.24,6,1,6,0.00
2013-11-6,66,56,49,36,26,16,50,34,15,30.24,29.83,10,2,10,0.00
2013-11-7,58,53,42,46,30,2,67,43,17,29.83,29.65,10,2,11,0.00
2013-11-8,50,41,32,13,1,-5,33,18,14,30.06,29.83,11,2,14,0.00
2013-11-9,54,39,27,13,3,-5,39,23,13,30.12,29.80,9,1,10,0.00
2013-11-10,58,44,29,26,6,0,42,23,13,29.94,29.71,15,3,15,0.00
2013-11-11,53,47,33,9,2,-6,26,16,13,30.03,29.77,9,2,10,0.00
2013-11-12,51,38,28,10,-2,-10,31,18,14,30.15,29.77,12,3,14,0.00
2013-11-13,42,32,25,-1,-7,-11,19,17,16,30.21,30.12,10,2,13,0.00
2013-11-14,54,36,24,8,-3,-12,32,19,13,30.12,29.97,9,1,12,0.00
2013-11-15,57,39,26,10,-2,-11,23,17,13,30.06,29.97,5,0,5,0.00
2013-11-16,60,49,38,32,22,1,51,35,18,30.12,30.03,7,1,8,0.00
2013-11-17,61,56,50,52,42,32,73,61,51,30.03,29.50,9,2,11,0.00
2013-11-18,65,58,47,54,21,0,75,30,13,29.71,29.44,15,4,15,0.00
2013-11-19,49,42,34,2,-2,-6,17,15,14,30.15,29.71,13,3,14,0.00
2013-11-20,34,29,25,-4,-8,-11,23,19,17,30.36,30.15,4,0,5,0.00
2013-11-21,49,38,23,15,0,-13,28,19,16,30.36,30.15,5,0,5,0.00
2013-11-22,52,49,45,38,27,14,61,44,28,30.15,29.77,9,0,11,0.00
2013-11-23,52,44,36,33,17,7,47,34,29,29.91,29.83,13,3,13,0.00
2013-11-24,26,24,22,-10,-12,-13,20,19,19,30.24,30.15,8,3,8,0.00
2013-11-25,34,27,19,-5,-10,-16,20,19,17,30.30,30.09,10,2,10,0.00
2013-11-26,44,34,32,31,4,-7,61,31,17,30.09,29.38,8,1,9,0.00
2013-11-27,49,40,38,37,31,28,73,68,57,29.38,29.29,11,3,11,0.00
2013-12-1,39,36,35,8,4,0,31,26,21,29.85,29.80,0,0,0,0.00
2013-12-2,47,39,34,15,11,7,40,32,27,29.80,29.65,4,0,4,0.00
2013-12-3,52,40,32,23,14,5,43,34,21,29.80,29.68,6,0,6,0.00
2013-12-4,54,44,32,27,20,9,47,38,28,29.88,29.77,4,0,5,0.00
2013-12-5,55,52,49,49,40,26,79,64,40,29.85,29.68,3,0,4,0.00
2013-12-6,58,47,36,53,41,30,84,79,73,29.94,29.65,6,1,8,0.00
2013-12-7,39,34,28,30,20,8,78,57,39,30.30,29.88,8,2,10,0.00
2013-12-8,29,27,26,15,7,1,57,42,31,30.33,30.09,7,2,7,0.00
2013-12-9,36,33,28,28,23,15,82,66,56,30.09,29.77,6,1,6,0.00
2013-12-10,34,29,15,29,22,6,87,76,60,29.94,29.71,8,0,8,0.00
2013-12-11,34,22,10,15,5,2,72,51,28,30.12,29.94,10,1,10,0.00
2013-12-12,28,23,16,8,-6,-17,46,28,18,30.15,29.94,10,2,10,0.00
2013-12-13,36,23,10,-3,-12,-21,34,21,17,30.06,29.91,13,1,13,0.00
2013-12-14,32,29,26,19,8,-6,63,42,24,30.12,29.50,12,2,12,0.00
2013-12-15,40,32,27,28,16,3,71,53,27,29.65,29.38,17,2,17,0.00
2013-12-16,31,25,19,7,-10,-15,36,20,18,29.94,29.65,12,3,12,0.00
2013-12-17,29,24,19,8,1,-12,47,37,19,29.94,29.71,5,1,5,0.00
2013-12-18,37,28,17,11,1,-6,54,34,17,29.94,29.74,11,2,12,0.00
2013-12-19,43,29,16,14,2,-6,43,31,18,29.91,29.80,5,0,5,0.00
2013-12-20,52,38,29,22,12,6,46,34,20,29.83,29.71,4,0,4,0.00
2013-12-21,58,44,34,31,22,14,51,42,31,29.74,29.62,5,0,5,0.00
2013-12-22,65,61,46,55,49,28,71,64,51,29.71,29.53,12,2,15,0.00
2013-12-23,56,49,36,51,37,13,86,64,37,29.91,29.65,10,2,11,0.00
2013-12-24,38,31,23,14,2,-13,46,30,18,30.12,29.85,13,3,13,0.00
2013-12-25,29,24,17,-9,-12,-16,26,20,18,30.24,30.06,8,2,8,0.00
2013-12-26,37,27,20,13,2,-12,44,34,21,30.06,29.88,6,1,6,0.00
2013-12-27,45,28,15,15,1,-8,52,33,15,30.06,29.97,10,1,10,0.00
2013-12-28,56,36,21,20,2,-6,43,26,13,29.97,29.77,11,1,11,0.00
2013-12-29,42,38,34,31,19,-1,70,48,22,29.77,29.21,8,1,9,0.00
2013-12-30,43,35,24,32,11,-9,70,40,20,29.83,29.44,11,2,11,0.00
2013-12-31,37,27,20,3,-7,-15,30,21,17,29.94,29.71,15,2,19,0.00
2014-1-1,35,28,18,7,-1,-16,33,28,20,30.03,29.80,5,1,6,0.00
2014-1-2,32,28,20,11,7,3,56,42,31,29.80,29.32,8,3,8,0.00